Stündliche Wetter Warszawka

Heute, 23 Oktober, Freitag

Zeit Temperatur Niederschläge Wind Luftdruck Luftfeuchtigkeit
00:00 +12°C° 0 mm 4 m/S 748 mmHg 87%
01:00 +12°C° 0 mm 5 m/S 748 mmHg 83%
02:00 +12°C° 0 mm 5 m/S 747 mmHg 84%
03:00 +12°C° 0 mm 5 m/S 747 mmHg 84%
04:00 +12°C° 0 mm 5 m/S 747 mmHg 85%
05:00 +12°C° 0 mm 5 m/S 747 mmHg 86%
06:00 +12°C° 0 mm 4 m/S 747 mmHg 87%
07:00 +12°C° 0 mm 4 m/S 747 mmHg 89%
08:00 +13°C° 0 mm 4 m/S 747 mmHg 86%
09:00 +14°C° 0 mm 4 m/S 747 mmHg 83%
10:00 +14°C° 0 mm 4 m/S 747 mmHg 80%
11:00 +15°C° 0 mm 4 m/S 747 mmHg 78%
12:00 +17°C° 0 mm 4 m/S 747 mmHg 75%
13:00 +17°C° 0 mm 4 m/S 747 mmHg 73%
14:00 +13°C° 0 mm 2 m/S 746 mmHg 88%
15:00 +14°C° 0 mm 2 m/S 746 mmHg 84%
16:00 +15°C° 0 mm 2 m/S 747 mmHg 81%
17:00 +15°C° 0 mm 2 m/S 747 mmHg 83%
18:00 +14°C° 0 mm 2 m/S 747 mmHg 86%
19:00 +14°C° 0 mm 2 m/S 747 mmHg 89%
20:00 +14°C° 0.2 mm 2 m/S 747 mmHg 90%
21:00 +14°C° 0.2 mm 2 m/S 747 mmHg 92%
22:00 +14°C° 0.2 mm 1 m/S 746 mmHg 93%
23:00 +13°C° 1.6 mm 1 m/S 746 mmHg 94%

Morgen, 24 Oktober, Samstag

Zeit Temperatur Niederschläge Wind Luftdruck Luftfeuchtigkeit
00:00 +13°C° 1.6 mm 1 m/S 746 mmHg 94%
01:00 +13°C° 1.6 mm 1 m/S 746 mmHg 95%
02:00 +13°C° 0.4 mm 1 m/S 746 mmHg 94%
03:00 +13°C° 0.4 mm 1 m/S 746 mmHg 94%
04:00 +12°C° 0.4 mm 1 m/S 747 mmHg 94%
05:00 +12°C° 0 mm 1 m/S 747 mmHg 94%
06:00 +12°C° 0 mm 2 m/S 747 mmHg 94%
07:00 +12°C° 0 mm 2 m/S 747 mmHg 94%
08:00 +12°C° 0 mm 3 m/S 748 mmHg 89%
09:00 +13°C° 0 mm 4 m/S 748 mmHg 84%
10:00 +14°C° 0 mm 5 m/S 748 mmHg 79%
11:00 +14°C° 0 mm 5 m/S 748 mmHg 77%
12:00 +15°C° 0 mm 5 m/S 748 mmHg 75%
13:00 +15°C° 0 mm 6 m/S 748 mmHg 72%
14:00 +15°C° 0 mm 5 m/S 749 mmHg 74%
15:00 +14°C° 0 mm 5 m/S 749 mmHg 75%
16:00 +14°C° 0 mm 4 m/S 749 mmHg 76%
17:00 +13°C° 0 mm 4 m/S 749 mmHg 80%
18:00 +12°C° 0 mm 3 m/S 750 mmHg 83%
19:00 +10°C° 0 mm 3 m/S 750 mmHg 87%
20:00 +10°C° 0 mm 2 m/S 750 mmHg 88%
21:00 +10°C° 0 mm 2 m/S 751 mmHg 90%
22:00 +9°C° 0 mm 2 m/S 751 mmHg 91%
23:00 +9°C° 0 mm 2 m/S 751 mmHg 92%

übermorgen, 25 Oktober, Sonntag

Zeit Temperatur Niederschläge Wind Luftdruck Luftfeuchtigkeit
00:00 +9°C° 0 mm 2 m/S 751 mmHg 92%
01:00 +9°C° 0 mm 3 m/S 751 mmHg 93%
02:00 +9°C° 0 mm 3 m/S 751 mmHg 93%
03:00 +9°C° 0 mm 2 m/S 751 mmHg 93%
04:00 +9°C° 0 mm 2 m/S 751 mmHg 94%
05:00 +9°C° 0 mm 3 m/S 751 mmHg 94%
06:00 +9°C° 0 mm 3 m/S 751 mmHg 94%
07:00 +9°C° 0 mm 3 m/S 751 mmHg 95%
08:00 +10°C° 0 mm 3 m/S 751 mmHg 90%
09:00 +11°C° 0 mm 4 m/S 751 mmHg 85%
10:00 +13°C° 0 mm 4 m/S 751 mmHg 79%
11:00 +14°C° 0 mm 4 m/S 751 mmHg 75%
12:00 +15°C° 0 mm 4 m/S 751 mmHg 71%
13:00 +15°C° 0 mm 4 m/S 751 mmHg 67%
14:00 +15°C° 0 mm 4 m/S 750 mmHg 71%
15:00 +14°C° 0 mm 3 m/S 750 mmHg 74%
16:00 +13°C° 0 mm 3 m/S 750 mmHg 78%
17:00 +13°C° 0 mm 3 m/S 750 mmHg 80%
18:00 +12°C° 0 mm 4 m/S 750 mmHg 83%
19:00 +11°C° 0 mm 4 m/S 750 mmHg 85%
20:00 +11°C° 0 mm 4 m/S 749 mmHg 86%
21:00 +11°C° 0 mm 4 m/S 749 mmHg 86%
22:00 +10°C° 0 mm 4 m/S 749 mmHg 87%
23:00 +10°C° 0 mm 4 m/S 749 mmHg 88%

, 26 Oktober, Montag

Zeit Temperatur Niederschläge Wind Luftdruck Luftfeuchtigkeit
00:00 +10°C° 0 mm 4 m/S 749 mmHg 90%
01:00 +8°C° 0 mm 4 m/S 748 mmHg 91%
02:00 +8°C° 0 mm 4 m/S 748 mmHg 92%
03:00 +8°C° 0 mm 4 m/S 748 mmHg 93%
04:00 +8°C° 0 mm 4 m/S 747 mmHg 93%
05:00 +7°C° 0 mm 4 m/S 747 mmHg 93%
06:00 +7°C° 0 mm 4 m/S 747 mmHg 94%
07:00 +7°C° 0 mm 4 m/S 747 mmHg 94%
08:00 +8°C° 0 mm 5 m/S 746 mmHg 88%
09:00 +9°C° 0 mm 5 m/S 746 mmHg 82%
10:00 +10°C° 0 mm 5 m/S 746 mmHg 76%
11:00 +12°C° 0 mm 5 m/S 746 mmHg 75%
12:00 +13°C° 0 mm 5 m/S 745 mmHg 73%
13:00 +13°C° 0 mm 5 m/S 745 mmHg 71%
14:00 +13°C° 0 mm 5 m/S 744 mmHg 74%
15:00 +13°C° 0 mm 5 m/S 744 mmHg 77%
16:00 +13°C° 0 mm 5 m/S 744 mmHg 80%
17:00 +12°C° 0 mm 5 m/S 744 mmHg 83%
18:00 +12°C° 0 mm 5 m/S 744 mmHg 85%
19:00 +12°C° 0 mm 5 m/S 744 mmHg 87%
20:00 +10°C° 0 mm 5 m/S 744 mmHg 89%
21:00 +11°C° 0 mm 4 m/S 743 mmHg 90%
22:00 +11°C° 0 mm 4 m/S 743 mmHg 91%
23:00 +11°C° 0 mm 4 m/S 743 mmHg 91%

26 Oktober, Montag

Zeit Temperatur Niederschläge Wind Luftdruck Luftfeuchtigkeit
00:00 +10°C° 0 mm 4 m/S 749 mmHg 90%
01:00 +8°C° 0 mm 4 m/S 748 mmHg 91%
02:00 +8°C° 0 mm 4 m/S 748 mmHg 92%
03:00 +8°C° 0 mm 4 m/S 748 mmHg 93%
04:00 +8°C° 0 mm 4 m/S 747 mmHg 93%
05:00 +7°C° 0 mm 4 m/S 747 mmHg 93%
06:00 +7°C° 0 mm 4 m/S 747 mmHg 94%
07:00 +7°C° 0 mm 4 m/S 747 mmHg 94%
08:00 +8°C° 0 mm 5 m/S 746 mmHg 88%
09:00 +9°C° 0 mm 5 m/S 746 mmHg 82%
10:00 +10°C° 0 mm 5 m/S 746 mmHg 76%
11:00 +12°C° 0 mm 5 m/S 746 mmHg 75%
12:00 +13°C° 0 mm 5 m/S 745 mmHg 73%
13:00 +13°C° 0 mm 5 m/S 745 mmHg 71%
14:00 +13°C° 0 mm 5 m/S 744 mmHg 74%
15:00 +13°C° 0 mm 5 m/S 744 mmHg 77%
16:00 +13°C° 0 mm 5 m/S 744 mmHg 80%
17:00 +12°C° 0 mm 5 m/S 744 mmHg 83%
18:00 +12°C° 0 mm 5 m/S 744 mmHg 85%
19:00 +12°C° 0 mm 5 m/S 744 mmHg 87%
20:00 +10°C° 0 mm 5 m/S 744 mmHg 89%
21:00 +11°C° 0 mm 4 m/S 743 mmHg 90%
22:00 +11°C° 0 mm 4 m/S 743 mmHg 91%
23:00 +11°C° 0 mm 4 m/S 743 mmHg 91%

27 Oktober, Dienstag

Zeit Temperatur Niederschläge Wind Luftdruck Luftfeuchtigkeit
00:00 +10°C° 0 mm 4 m/S 743 mmHg 91%
01:00 +10°C° 0 mm 4 m/S 743 mmHg 92%
02:00 +10°C° 0 mm 4 m/S 743 mmHg 90%
03:00 +11°C° 0 mm 4 m/S 743 mmHg 87%
04:00 +10°C° 0 mm 5 m/S 743 mmHg 85%
05:00 +11°C° 0 mm 4 m/S 743 mmHg 86%
06:00 +11°C° 0 mm 4 m/S 744 mmHg 86%
07:00 +11°C° 0 mm 4 m/S 744 mmHg 87%
08:00 +12°C° 0 mm 4 m/S 744 mmHg 82%
09:00 +13°C° 0 mm 4 m/S 744 mmHg 77%
10:00 +14°C° 0 mm 5 m/S 744 mmHg 73%
11:00 +15°C° 0 mm 4 m/S 745 mmHg 71%
12:00 +15°C° 0 mm 4 m/S 745 mmHg 68%
13:00 +17°C° 0 mm 4 m/S 745 mmHg 66%
14:00 +16°C° 0 mm 3 m/S 745 mmHg 69%
15:00 +16°C° 0 mm 3 m/S 746 mmHg 73%
16:00 +15°C° 0 mm 2 m/S 746 mmHg 76%
17:00 +15°C° 0 mm 2 m/S 746 mmHg 79%
18:00 +14°C° 0 mm 2 m/S 746 mmHg 81%
19:00 +14°C° 0 mm 2 m/S 747 mmHg 84%
20:00 +14°C° 0 mm 2 m/S 747 mmHg 83%
21:00 +14°C° 0 mm 2 m/S 747 mmHg 82%
22:00 +14°C° 0 mm 2 m/S 747 mmHg 82%
23:00 +13°C° 0 mm 2 m/S 747 mmHg 83%

28 Oktober, Mittwoch

Zeit Temperatur Niederschläge Wind Luftdruck Luftfeuchtigkeit
00:00 +13°C° 0 mm 2 m/S 747 mmHg 85%
01:00 +13°C° 0 mm 2 m/S 747 mmHg 87%
02:00 +12°C° 0 mm 2 m/S 747 mmHg 87%
03:00 +12°C° 0 mm 2 m/S 747 mmHg 88%
04:00 +12°C° 0 mm 2 m/S 747 mmHg 89%
05:00 +12°C° 0 mm 2 m/S 748 mmHg 89%
06:00 +10°C° 0 mm 2 m/S 748 mmHg 90%
07:00 +10°C° 0 mm 2 m/S 748 mmHg 90%
08:00 +12°C° 0 mm 2 m/S 748 mmHg 88%
09:00 +12°C° 0 mm 2 m/S 748 mmHg 85%
10:00 +12°C° 0 mm 3 m/S 748 mmHg 83%
11:00 +12°C° 0 mm 3 m/S 749 mmHg 78%
12:00 +13°C° 0 mm 4 m/S 749 mmHg 73%
13:00 +13°C° 0 mm 4 m/S 749 mmHg 68%
14:00 +13°C° 0 mm 4 m/S 749 mmHg 71%
15:00 +12°C° 0 mm 4 m/S 749 mmHg 75%
16:00 +12°C° 0 mm 3 m/S 749 mmHg 79%
17:00 +11°C° 0 mm 3 m/S 750 mmHg 82%
18:00 +10°C° 0 mm 3 m/S 750 mmHg 85%
19:00 +9°C° 0 mm 2 m/S 750 mmHg 88%
20:00 +9°C° 0 mm 2 m/S 750 mmHg 89%
21:00 +8°C° 0 mm 2 m/S 751 mmHg 89%
22:00 +8°C° 0 mm 2 m/S 751 mmHg 90%
23:00 +8°C° 0 mm 2 m/S 751 mmHg 91%
Mehr zeigen

Wir brauchen deine Erlaubnis

Meteoprog und unser Service Anbieter werden persönliche Daten aufbewahren, so wie Cookies, Geräte Bezeichnung oder ähnliche Technologien von deinem Gerät und Prozess, so wie Persönliche Daten Inhalte und Werbungen, genauso wie social Media und den Verkehr zu analysieren.

  • Aufbewahrung und/oder Zugang zu deiner Geräte Informationen.

    Cookies, Geräte Bezeichnung oder andere Informationen, können aufbewahrt oder Zugang zu deinem Gerät erhalten, für den Grund, der oben angegeben wird.

  • Personalisierte Werbung und Inhalte, Messungen, Einblick in das Publikum und Produkt Entwicklung.

    Werbungen und Inhalte können personalisiert werden, basierend auf ein Profil. Mehr Daten können besser personalisierte Werbungen und Inhalte hinzufügen. Werbung und Inhalte können gezeigt und gemessen werden. Einblicke über das Publikum, welche die Werbung gesehen haben und den Inhalt, können abgeleitet werden. So wie Daten können genutzt werden, um es zu verbessern oder die Benutzer Erfahrung zu verbessern das System und die Software.

Wenn du “Ich stimme zu” klickst, erlaubst du uns, die Cookies zu benutzen die Geräte Bezeichnung, den Web oder ähnliche Technologien zu benutzen. Deine Settings, können in deinem Gerät bei deinem Browser geändert werden.

Für den bestimmten Zweck, berechtigten Interessen beruhen darauf, mehr als auf den Inhalt. Du kannst mehr darüber in unseren Privaten und Cookie Politik lesen.